STARLINK-32373, 60923

Orbit data source: Space-Track

STARLINK-32373, 60923 is a payload satellite owned by SpaceX/Seattle (US) in LEO that was launched on Sat, 31 Aug 2024 UTC via an FALCON 9 launch vehicle from the Air Force Eastern Test Range (AFETR). Payload-class satellites include a variety of spacecraft equipped with specific instruments for various scientific and technological missions. These include communications satellites like Starlink; space stations such as the ISS; scientific satellites like the Hubble; Earth observation satellites from companies like Planet Labs, Umbra, and HawkEye 360; GPS; miniature CubeSats for education and research; and military/defense satellites.

Loading next visibility...
Identifier
60923, 2024-154W
Orbit
LEO
Country
Flag of USUS
Related business
Manufacturer
SpaceX/Seattle
Mission
Operational Commercial Communications
Bus & Motor
STARLINK V2M, Unknown motor
Mass
730 kg wet, ~700 kg dry
Launch date (UTC)
2024-08-31 (2 years ago)
Launch vehicle
FALCON 9
Launch site
Air Force Eastern Test Range (AFETR)
Object type
Payload
Rocket body
Debris
Shape & HBR
Box + 2 Pan, 17.7 m
Radar Cross Section
33.884 m², Large (>1 m²)

Expand to show TLE details & history
Last TLE update: 1 day ago

TLE from 1 day ago
0 STARLINK-32373
1 60923U 24154W   26175.22667189  .00002835  00000-0  10791-3 0  9997
2 60923  53.1595 149.1719 0001222 102.3547 257.7591 15.30173431102659
Epoch: 2026-06-24T05:26Z
TLE epoch observation values (Epoch: 2026-06-24T05:26:24.451Z)
Latitude
0.00002°
Longitude
155.18312°
Altitude
476.372 km
Speed
7.629 km/s
True Right ascension
09h 56m 41s
True Declination
0° 00' 00"
Sunlit
Object was in daylight at epoch
Visualization orbit readout
Latitude
Unknown
Longitude
Unknown
Altitude
Unknown
Speed
Unknown
Apparent Right ascension
Unknown
Apparent Declination
Unknown
Sunlit
N/A
Visualization observer readout
Local Sidereal Time
17:01:11
Azimuth
Unknown
Elevation
Unknown
Doppler factor
Unknown
Orbital elements
Apogee altitude
476.388 km
Perigee altitude
474.713 km
Semi-major axis
6,853.688 km
Eccentricity
0.00012
Inclination
53.1595°
RAAN
149.1719°
Arg. of periapsis
102.3547°
True anomaly
257.74542°
Mean anomaly
257.7591°
Eccentric anomaly
257.75226°
Mean motion
3.82522 °/min
Orbital period
94.11 mins
BSTAR
0.00010791
Loading maneuver chart data...
Computing Atmospheric mass density...
Loading historical data...
Loading historical data...
Loading historical data...
Loading historical data...
Loading historical data...
Loading historical data...
Loading historical data...

Documentation

Showing up to 5 results
|